Location: Unspecified
(0.0000°N, 0.0000°E)
Time: 12:22:26
(UTC+00:00)

S-56A Canister/Altair - Pass Details

Date: 21 December 2018
Orbit: 633 x 2500 km, 38.9° (Epoch: 25 March)

Event Time Altitude Azimuth Distance (km) Brightness Sun altitude
Rises 12:37:42 0° 265° (W) 5,995 12.2 64.7°
Reaches altitude 10° 12:45:33 10° 240° (WSW) 4,645 12.0 63.9°
Maximum altitude 12:50:03 12° 219° (SW) 4,178 11.9 63.4°
Drops below altitude 10° 12:54:07 10° 197° (SSW) 4,091 11.8 62.9°
Sets 12:59:58 0° 169° (S) 4,609 11.8 62.2°
